Location: La Oliva
(42.2466°N, 2.9955°E)
Time: 11:26:31
(UTC+00:00)

Meteor 2-21 - Pass Details

Date: 22 April 2021
Orbit: 933 x 967 km, 82.5° (Epoch: 10 May)

Event Time Altitude Azimuth Distance (km) Brightness Sun altitude
Rises 20:21:26 0° 351° (N) 3,600 8.2 -17.9°
Reaches altitude 10° 20:23:54 10° 351° (N) 2,654 7.4 -18.2°
Maximum altitude 20:29:59 88° 266° (W) 945 4.4 -19.1°
Enters shadow 20:34:06 22° 175° (S) 1,932 5.7 -19.7°
